FW6622 Weather Reports


time (UTC)temp
C
wind
direction
speed
KPH
gust
KPH
rain 1hr
cm
rain 24hr
cm
rain mn
cm
humidity
%
barometer
mb
20260510191555 18 218 4.8 14.5 0.00 0.25 0.25 47 1026.7
20260510190044 17 217 3.2 25.7 0.00 0.25 0.25 46 1026.4
20260510184543 17 108 1.6 11.3 0.00 0.25 0.25 54 1026.2
20260510183050 16 262 3.2 8.0 0.00 0.25 0.25 59 1026.2
20260510181548 15 232 1.6 14.5 0.00 0.25 0.25 68 1026.3
20260510180045 14 186 3.2 12.9 0.00 0.25 0.25 64 1026.8
20260510174545 14 173 1.6 9.7 0.00 0.25 0.25 68 1026.6
20260510173051 13 157 4.8 14.5 0.00 0.25 0.25 77 1026.8
20260510171548 13 0 3.2 9.7 0.00 0.25 0.25 78 1026.4
20260510170052 13 0 1.6 9.7 0.00 0.25 0.25 78 1026.2
20260510164547 12 125 1.6 9.7 0.03 0.25 0.25 79 1026.3
20260510163044 12 0 0.0 4.8 0.03 0.25 0.25 79 1025.6
20260510161551 11 114 1.6 6.4 0.03 0.25 0.25 78 1025.9
20260510160041 11 349 3.2 9.7 0.03 0.25 0.25 80 1025.8
20260510154546 11 154 1.6 12.9 0.03 0.23 0.23 79 1025.8
20260510153047 12 200 3.2 12.9 0.03 0.23 0.23 78 1026.0
20260510151548 12 308 4.8 16.1 0.03 0.23 0.23 78 1026.0
20260510150047 12 205 3.2 12.9 0.03 0.23 0.23 78 1025.9
20260510144543 12 121 1.6 8.0 0.00 0.20 0.20 80 1025.7
20260510143043 12 0 3.2 12.9 0.03 0.20 0.20 80 1025.6
20260510141540 12 133 3.2 14.5 0.08 0.20 0.20 81 1025.7
20260510140042 12 249 3.2 14.5 0.10 0.20 0.20 84 1025.6
20260510134549 12 280 3.2 17.7 0.15 0.20 0.20 83 1025.6
20260510133059 12 167 3.2 12.9 0.18 0.18 0.18 83 1025.2
20260510131550 13 135 3.2 12.9 0.13 0.13 0.13 82 1025.0
20260510130043 13 186 1.6 6.4 0.10 0.10 0.10 81 1024.9
20260510124547 14 203 0.0 4.8 0.05 0.05 0.05 75 1024.6
20260510123057 15 0 0.0 12.9 0.00 0.00 0.00 68 1024.1
20260510121545 16 273 1.6 4.8 0.00 0.00 0.00 64 1023.3
20260510120043 16 203 1.6 6.4 0.00 0.00 0.00 64 1022.7
20260510114549 15 241 1.6 8.0 0.00 0.00 0.00 65 1021.9
20260510113052 15 274 1.6 6.4 0.00 0.00 0.00 65 1021.4
20260510111544 15 171 1.6 11.3 0.00 0.00 0.00 66 1021.0
20260510110044 15 144 3.2 11.3 0.00 0.00 0.00 68 1020.2
20260510104544 15 157 1.6 8.0 0.00 0.00 0.00 70 1020.2
20260510103044 15 5 1.6 6.4 0.00 0.00 0.00 71 1020.0
20260510101543 15 0 0.0 4.8 0.00 0.00 0.00 73 1019.7
20260510100040 14 0 1.6 6.4 0.00 0.00 0.00 73 1019.6
20260510094546 15 0 0.0 4.8 0.00 0.00 0.00 73 1019.6
20260510093044 14 285 4.8 12.9 0.00 0.00 0.00 73 1019.4
20260510091543 14 0 0.0 1.6 0.00 0.00 0.00 77 1019.1
20260510090058 14 0 0.0 3.2 0.00 0.00 0.00 74 1018.9
20260510084539 15 198 0.0 1.6 0.00 0.00 0.00 73 1018.6
20260510083039 15 0 0.0 1.6 0.00 0.00 0.00 70 1018.5
20260510081550 16 0 0.0 1.6 0.00 0.00 0.00 68 1018.3
20260510080045 16 198 0.0 3.2 0.00 0.00 0.00 66 1018.3
20260510074543 15 0 0.0 0.0 0.00 0.00 0.00 70 1018.2
20260510073102 15 0 0.0 1.6 0.00 0.00 0.00 69 1018.2
20260510071548 16 0 1.6 4.8 0.00 0.00 0.00 66 1018.1
20260510070043 17 156 0.0 8.0 0.00 0.00 0.00 64 1018.1
20260510064554 17 130 3.2 9.7 0.00 0.00 0.00 62 1017.8
20260510063047 16 0 0.0 3.2 0.00 0.00 0.00 66 1017.7
20260510061544 17 0 0.0 3.2 0.00 0.00 0.00 66 1017.5
20260510060043 18 0 0.0 3.2 0.00 0.00 0.00 62 1017.0
20260510054541 18 0 0.0 3.2 0.00 0.00 0.00 54 1016.7
20260510053047 20 263 1.6 4.8 0.00 0.00 0.00 48 1016.3
20260510051545 20 251 1.6 6.4 0.00 0.00 0.00 48 1016.3
20260510050044 20 0 1.6 4.8 0.00 0.00 0.00 49 1016.2
20260510044549 21 317 0.0 8.0 0.00 0.00 0.00 49 1016.3
20260510043044 21 288 1.6 4.8 0.00 0.00 0.00 48 1016.3
20260510041543 21 0 1.6 12.9 0.00 0.00 0.00 49 1017.0
20260510040054 21 325 1.6 8.0 0.00 0.00 0.00 50 1016.8
20260510034547 21 350 3.2 14.5 0.00 0.00 0.00 50 1016.7
20260510033046 21 343 3.2 9.7 0.00 0.00 0.00 50 1016.8
20260510031552 22 319 1.6 4.8 0.00 0.00 0.00 50 1017.2
20260510030049 22 337 1.6 6.4 0.00 0.00 0.00 44 1017.4
20260510024550 22 0 1.6 4.8 0.00 0.00 0.00 47 1017.5
20260510023046 23 321 3.2 14.5 0.00 0.00 0.00 43 1017.6
20260510021554 20 273 1.6 3.2 0.00 0.00 0.00 56 1017.4
20260510020044 21 0 0.0 3.2 0.00 0.00 0.00 50 1016.6
20260510014544 22 273 0.0 3.2 0.00 0.00 0.00 46 1015.5
20260510013042 22 273 1.6 4.8 0.00 0.00 0.00 45 1015.0
20260510011540 22 274 1.6 6.4 0.00 0.00 0.00 44 1014.4
20260510010045 23 277 1.6 6.4 0.00 0.00 0.00 42 1014.2
20260510004547 24 284 3.2 9.7 0.00 0.00 0.00 38 1013.7
20260510003048 25 286 3.2 9.7 0.00 0.00 0.00 37 1013.5
20260510001540 26 277 3.2 11.3 0.00 0.00 0.00 34 1013.5
20260510000042 26 291 4.8 11.3 0.00 0.00 0.00 32 1013.6
20260509234549 27 288 6.4 12.9 0.00 0.00 0.00 29 1013.5
20260509233052 27 0 4.8 17.7 0.00 0.00 0.00 30 1013.6
20260509231545 27 294 6.4 16.1 0.00 0.00 0.00 30 1013.5
20260509230044 28 291 4.8 17.7 0.00 0.00 0.00 30 1013.6
20260509224553 28 280 3.2 19.3 0.00 0.00 0.00 29 1013.3
20260509223047 28 284 6.4 16.1 0.00 0.00 0.00 26 1013.4
20260509221558 28 254 8.0 16.1 0.00 0.00 0.00 27 1013.3
20260509220051 29 284 6.4 17.7 0.00 0.00 0.00 26 1013.3
20260509214550 29 302 4.8 14.5 0.00 0.00 0.00 25 1013.4
20260509213045 29 360 3.2 17.7 0.00 0.00 0.00 28 1013.5
20260509211546 30 288 3.2 14.5 0.00 0.00 0.00 25 1013.7
20260509210044 29 268 4.8 16.1 0.00 0.00 0.00 28 1014.0
20260509204544 30 34 1.6 12.9 0.00 0.00 0.00 26 1014.2
20260509203041 30 244 6.4 14.5 0.00 0.00 0.00 25 1014.4
20260509201554 30 5 3.2 14.5 0.00 0.00 0.00 26 1014.5
20260509200057 29 342 0.0 8.0 0.00 0.00 0.00 27 1014.7
20260509194543 29 30 1.6 12.9 0.00 0.00 0.00 29 1014.9
20260509193044 29 260 1.6 8.0 0.00 0.00 0.00 26 1015.0